EW9130 Weather Reports


time (UTC)temp
F
wind
direction
speed
knots
gust
knots
rain 1hr
in
rain 24hr
in
rain mn
in
humidity
%
barometer
mb
20260906222027 81 31 7.0 14.8 0.00 0.00 0.00 58 1004.7
20260906221526 81 91 7.0 13.9 0.00 0.00 0.00 60 1004.8
20260906221024 80 91 4.3 13.9 0.00 0.00 0.00 60 1004.7
20260906220524 80 30 7.8 12.2 0.00 0.00 0.00 61 1004.6
20260906220023 80 53 7.8 12.2 0.00 0.00 0.00 60 1004.7
20260906215523 80 25 7.8 12.2 0.00 0.00 0.00 59 1004.7
20260906215023 80 33 6.1 13.9 0.00 0.00 0.00 61 1004.7
20260906214523 80 36 9.6 13.9 0.00 0.00 0.00 61 1004.7
20260906214025 80 11 7.0 13.0 0.00 0.00 0.00 62 1004.7
20260906213521 80 53 6.1 13.0 0.00 0.00 0.00 62 1004.7
20260906213021 79 36 6.1 12.2 0.00 0.00 0.00 62 1004.8
20260906212519 79 38 7.0 13.0 0.00 0.00 0.00 62 1004.9
20260906212019 80 39 7.0 13.0 0.00 0.00 0.00 61 1004.9
20260906211533 79 25 6.1 11.3 0.00 0.00 0.00 62 1005.0
20260906211024 79 28 5.2 12.2 0.00 0.00 0.00 63 1005.1
20260906210515 78 50 5.2 12.2 0.00 0.00 0.00 63 1005.3
20260906210014 78 26 2.6 10.4 0.00 0.00 0.00 64 1005.5
20260906205513 78 69 3.5 10.4 0.00 0.00 0.00 62 1005.6
20260906205012 78 82 4.3 10.4 0.00 0.00 0.00 62 1005.6
20260906204523 78 26 4.3 10.4 0.00 0.00 0.00 63 1005.7
20260906204010 78 59 5.2 11.3 0.00 0.00 0.00 64 1005.8
20260906203509 78 43 6.1 11.3 0.00 0.00 0.00 64 1005.9
20260906203009 78 92 6.1 9.6 0.00 0.00 0.00 64 1006.0
20260906202508 78 22 3.5 7.8 0.00 0.00 0.00 64 1006.1
20260906202009 78 317 1.7 7.0 0.00 0.00 0.00 64 1006.2
20260906201506 78 85 1.7 7.8 0.00 0.00 0.00 65 1006.2
20260906201005 78 82 2.6 7.8 0.00 0.00 0.00 64 1006.3
20260906200504 78 63 2.6 7.8 0.00 0.00 0.00 66 1006.4
20260906200005 77 311 1.7 7.8 0.00 0.00 0.00 64 1006.5
20260906195501 77 70 1.7 7.8 0.00 0.00 0.00 65 1006.6
20260906195001 77 86 2.6 7.8 0.00 0.00 0.00 66 1006.6
20260906194618 77 11 3.5 7.8 0.00 0.00 0.00 65 1006.8
20260906194057 77 67 2.6 7.8 0.00 0.00 0.00 68 1006.8
20260906193556 76 314 2.6 7.8 0.00 0.00 0.00 70 1006.9
20260906193108 76 109 1.7 4.3 0.00 0.00 0.00 70 1007.0
20260906192553 75 324 2.6 7.0 0.00 0.00 0.00 69 1007.2
20260906192056 75 32 3.5 7.0 0.00 0.00 0.00 70 1007.2
20260906191558 75 18 3.5 7.0 0.00 0.00 0.00 73 1007.3
20260906191053 74 355 0.9 7.0 0.00 0.00 0.00 70 1007.4
20260906190548 74 82 2.6 7.8 0.00 0.00 0.00 70 1007.5
20260906190048 74 102 2.6 7.8 0.00 0.00 0.00 71 1007.7
20260906185547 74 35 4.3 7.8 0.00 0.00 0.00 72 1007.8
20260906185046 74 24 1.7 7.8 0.00 0.00 0.00 73 1007.8
20260906184547 73 308 1.7 7.0 0.00 0.00 0.00 73 1007.9
20260906184043 73 355 3.5 7.0 0.00 0.00 0.00 73 1008.1
20260906183543 73 54 2.6 5.2 0.00 0.00 0.00 75 1008.1
20260906183042 72 9 3.5 5.2 0.00 0.00 0.00 73 1008.3
20260906182544 72 72 2.6 5.2 0.00 0.00 0.00 74 1008.5
20260906182043 72 339 2.6 7.0 0.00 0.00 0.00 74 1008.6
20260906181602 72 27 2.6 6.1 0.00 0.00 0.00 76 1008.6
20260906181039 71 58 0.9 5.2 0.00 0.00 0.00 73 1008.8
20260906180537 71 76 0.9 5.2 0.00 0.00 0.00 73 1009.0
20260906180037 71 33 1.7 7.8 0.00 0.00 0.00 74 1009.1
20260906175534 71 46 4.3 7.8 0.00 0.00 0.00 73 1009.2
20260906175035 71 12 1.7 7.0 0.00 0.00 0.00 74 1009.2
20260906174538 70 16 2.6 7.0 0.00 0.00 0.00 74 1009.3
20260906174036 70 26 3.5 7.0 0.00 0.00 0.00 74 1009.5
20260906173533 70 60 3.5 7.0 0.00 0.00 0.00 74 1009.6
20260906173031 70 30 2.6 8.7 0.00 0.00 0.00 74 1009.6
20260906172529 70 42 3.5 8.7 0.00 0.00 0.00 75 1009.4
20260906172029 69 23 2.6 9.6 0.00 0.00 0.00 73 1009.4
20260906171528 69 355 3.5 9.6 0.00 0.00 0.00 74 1009.4
20260906171027 69 30 2.6 4.3 0.00 0.00 0.00 75 1009.5
20260906170527 69 32 1.7 5.2 0.00 0.00 0.00 75 1009.5
20260906170027 69 22 3.5 6.1 0.00 0.00 0.00 74 1009.6
20260906165528 69 22 2.6 4.3 0.00 0.00 0.00 74 1009.7
20260906165033 69 9 0.9 3.5 0.00 0.00 0.00 74 1009.8
20260906164537 69 348 0.0 2.6 0.00 0.00 0.00 74 1009.9
20260906164027 68 355 1.7 2.6 0.00 0.00 0.00 73 1009.8
20260906163525 68 323 1.7 4.3 0.00 0.00 0.00 74 1010.0
20260906163025 68 19 1.7 4.3 0.00 0.00 0.00 73 1009.9
20260906162528 68 346 1.7 4.3 0.00 0.00 0.00 74 1010.0
20260906162023 68 326 0.9 4.3 0.00 0.00 0.00 74 1010.0
20260906161523 68 22 0.9 4.3 0.00 0.00 0.00 73 1010.0
20260906161023 68 360 0.9 4.3 0.00 0.00 0.00 75 1010.1
20260906160523 68 360 2.6 4.3 0.00 0.00 0.00 74 1010.0
20260906160022 68 43 1.7 2.6 0.00 0.00 0.00 72 1009.9
20260906155522 68 342 0.9 2.6 0.00 0.00 0.00 72 1010.0
20260906155022 67 292 0.0 1.7 0.00 0.00 0.00 73 1010.0
20260906154535 67 249 0.9 1.7 0.00 0.00 0.00 71 1010.0
20260906154023 67 360 0.9 1.7 0.00 0.00 0.00 71 1009.9
20260906153520 67 360 0.9 2.6 0.00 0.00 0.00 71 1009.9
20260906153022 67 336 0.0 2.6 0.00 0.00 0.00 72 1009.9
20260906152521 66 287 0.9 2.6 0.00 0.00 0.00 71 1009.9
20260906152020 66 296 0.0 2.6 0.00 0.00 0.00 71 1010.0
20260906151518 66 273 0.0 1.7 0.00 0.00 0.00 71 1010.0
20260906151017 66 299 0.0 2.6 0.00 0.00 0.00 71 1010.2
20260906150514 65 260 0.9 2.6 0.00 0.00 0.00 71 1010.1
20260906150012 65 304 0.0 1.7 0.00 0.00 0.00 75 1010.2
20260906145514 64 283 0.0 1.7 0.00 0.00 0.00 73 1010.2
20260906145010 64 238 0.0 1.7 0.00 0.00 0.00 73 1010.3
20260906144509 63 188 0.0 1.7 0.00 0.00 0.00 74 1010.2
20260906144008 62 223 0.9 1.7 0.00 0.00 0.00 74 1010.2
20260906143508 62 204 0.9 1.7 0.00 0.00 0.00 75 1010.3
20260906143008 62 236 0.9 1.7 0.00 0.00 0.00 74 1010.3
20260906142507 61 287 0.0 1.7 0.00 0.00 0.00 76 1010.3
20260906142007 61 250 0.0 1.7 0.00 0.00 0.00 77 1010.2
20260906141506 60 273 0.9 1.7 0.00 0.00 0.00 78 1010.2
20260906141006 60 308 0.0 4.3 0.00 0.00 0.00 78 1010.2
20260906140506 60 289 0.9 4.3 0.00 0.00 0.00 78 1010.1
20260906140004 59 293 0.9 5.2 0.00 0.00 0.00 78 1010.0
20260906135506 59 200 2.6 5.2 0.00 0.00 0.00 79 1010.4
20260906135004 59 210 1.7 5.2 0.00 0.00 0.00 79 1010.2
20260906134504 59 250 0.0 5.2 0.00 0.00 0.00 79 1010.1
20260906134008 59 233 1.7 4.3 0.00 0.00 0.00 80 1009.9
20260906133503 59 360 1.7 3.5 0.00 0.00 0.00 80 1009.4
20260906133004 59 348 1.7 2.6 0.00 0.00 0.00 80 1009.5
20260906132503 58 232 0.9 5.2 0.00 0.00 0.00 80 1009.9
20260906132004 58 230 2.6 5.2 0.00 0.00 0.00 81 1010.2
20260906131506 57 219 1.7 3.5 0.00 0.00 0.00 83 1010.2
20260906131003 57 209 0.9 3.5 0.00 0.00 0.00 84 1010.2
20260906130559 57 236 1.7 3.5 0.00 0.00 0.00 85 1010.2
20260906130106 56 274 0.0 5.2 0.00 0.00 0.00 85 1009.9
20260906125559 56 194 3.5 5.2 0.00 0.00 0.00 86 1010.1
20260906125059 56 21 1.7 2.6 0.00 0.00 0.00 86 1009.2
20260906124556 56 305 0.0 1.7 0.00 0.00 0.00 86 1009.8
20260906124056 56 257 0.0 1.7 0.00 0.00 0.00 86 1009.9
20260906123556 56 257 0.0 1.7 0.00 0.00 0.00 86 1009.8
20260906123056 56 257 0.0 1.7 0.00 0.00 0.00 86 1009.9
20260906122555 56 257 0.0 1.7 0.00 0.00 0.00 85 1009.9
20260906122056 56 257 0.0 0.9 0.00 0.00 0.00 85 1009.9
20260906121554 56 286 0.0 0.9 0.00 0.00 0.00 85 1009.8
20260906121054 56 286 0.0 1.7 0.00 0.00 0.00 85 1009.9
20260906120553 56 286 0.0 1.7 0.00 0.00 0.00 85 1009.8
20260906120052 56 286 0.0 0.0 0.00 0.00 0.00 84 1009.8
20260906115552 56 286 0.0 0.0 0.00 0.00 0.00 84 1010.0
20260906115051 56 286 0.0 1.7 0.00 0.00 0.00 84 1010.0
20260906114558 57 286 0.0 1.7 0.00 0.00 0.00 84 1009.9
20260906114052 57 286 0.0 1.7 0.00 0.00 0.00 83 1009.9
20260906113551 57 286 0.0 1.7 0.00 0.00 0.00 83 1010.0
20260906113052 57 286 0.0 1.7 0.00 0.00 0.00 83 1009.9
20260906112551 57 294 0.0 1.7 0.00 0.00 0.00 83 1009.8
20260906112051 57 288 0.0 1.7 0.00 0.00 0.00 83 1009.8
20260906111551 57 11 0.0 1.7 0.00 0.00 0.00 82 1009.8
20260906111050 58 23 0.0 1.7 0.00 0.00 0.00 82 1009.7
20260906110549 58 23 0.0 1.7 0.00 0.00 0.00 82 1009.6
20260906110050 58 24 0.9 1.7 0.00 0.00 0.00 82 1009.9
20260906105549 58 24 0.0 1.7 0.00 0.00 0.00 82 1009.7
20260906105049 58 24 0.9 2.6 0.00 0.00 0.00 82 1009.4
20260906104557 58 28 0.0 5.2 0.00 0.00 0.00 82 1009.7
20260906104054 58 33 2.6 5.2 0.00 0.00 0.00 81 1009.7
20260906103549 58 26 0.0 3.5 0.00 0.00 0.00 81 1009.8
20260906103049 58 186 0.0 1.7 0.00 0.00 0.00 82 1010.1
20260906102549 57 194 0.0 4.3 0.00 0.00 0.00 82 1010.4
20260906102048 57 205 3.5 4.3 0.00 0.00 0.00 83 1010.8
20260906101547 57 198 0.0 0.0 0.00 0.00 0.00 84 1010.5
20260906101046 57 217 0.0 0.9 0.00 0.00 0.00 84 1010.4
20260906100548 57 217 0.0 1.7 0.00 0.00 0.00 84 1010.4
20260906100044 57 217 0.0 1.7 0.00 0.00 0.00 84 1010.2
20260906095548 56 217 0.0 1.7 0.00 0.00 0.00 84 1010.1
20260906095044 56 216 0.0 1.7 0.00 0.00 0.00 84 1009.9
20260906094559 57 216 0.0 1.7 0.00 0.00 0.00 84 1009.8
20260906094043 57 308 0.0 1.7 0.00 0.00 0.00 84 1009.7
20260906093543 57 277 0.0 0.0 0.00 0.00 0.00 84 1009.7
20260906093102 57 277 0.0 0.0 0.00 0.00 0.00 84 1009.7
20260906092542 57 274 0.0 0.0 0.00 0.00 0.00 84 1009.8
20260906092042 57 274 0.0 0.0 0.00 0.00 0.00 84 1009.7
20260906091541 57 274 0.0 0.0 0.00 0.00 0.00 84 1009.8
20260906091041 57 274 0.0 0.0 0.00 0.00 0.00 84 1009.7
20260906090540 57 274 0.0 0.0 0.00 0.00 0.00 84 1009.7
20260906090040 57 274 0.0 0.0 0.00 0.00 0.00 84 1009.6
20260906085539 57 274 0.0 1.7 0.00 0.00 0.00 84 1009.4
20260906085040 57 259 0.0 1.7 0.00 0.00 0.00 84 1009.7
20260906084539 58 299 0.0 1.7 0.00 0.00 0.00 84 1009.5
20260906084040 58 215 0.0 0.9 0.00 0.00 0.00 83 1009.5
20260906083538 58 193 0.0 0.0 0.00 0.00 0.00 83 1009.6
20260906083045 58 193 0.0 0.0 0.00 0.00 0.00 83 1009.6
20260906082537 58 193 0.0 0.9 0.00 0.00 0.00 83 1009.6
20260906082037 58 193 0.0 2.6 0.00 0.00 0.00 83 1009.6
20260906081539 58 193 0.9 2.6 0.00 0.00 0.00 83 1009.8
20260906081036 58 185 0.9 1.7 0.00 0.00 0.00 83 1009.7
20260906080536 58 49 0.9 1.7 0.00 0.00 0.00 83 1009.6
20260906080040 58 49 0.0 1.7 0.00 0.00 0.00 82 1009.4
20260906075534 58 49 0.0 1.7 0.00 0.00 0.00 82 1009.4
20260906075034 58 49 0.0 1.7 0.00 0.00 0.00 81 1009.4
20260906074534 58 49 0.0 1.7 0.00 0.00 0.00 81 1009.5
20260906074032 59 49 0.0 1.7 0.00 0.00 0.00 81 1009.7
20260906073536 59 49 0.0 1.7 0.00 0.00 0.00 80 1009.7
20260906073030 59 49 0.0 1.7 0.00 0.00 0.00 80 1009.8
20260906072530 59 49 0.0 0.9 0.00 0.00 0.00 79 1009.8
20260906072029 59 49 0.0 1.7 0.00 0.00 0.00 78 1009.9
20260906071528 59 49 0.0 1.7 0.00 0.00 0.00 77 1009.9
20260906071027 60 49 0.0 1.7 0.00 0.00 0.00 78 1009.9
20260906070525 60 49 0.0 0.0 0.00 0.00 0.00 78 1009.9
20260906070025 60 49 0.0 1.7 0.00 0.00 0.00 78 1010.0
20260906065524 60 49 0.0 1.7 0.00 0.00 0.00 77 1009.9
20260906065024 60 57 0.0 1.7 0.00 0.00 0.00 75 1009.9
20260906064522 61 59 0.0 1.7 0.00 0.00 0.00 74 1010.1
20260906064021 61 40 0.0 1.7 0.00 0.00 0.00 73 1010.1
20260906063520 61 40 0.0 1.7 0.00 0.00 0.00 74 1010.1
20260906063020 61 40 0.9 1.7 0.00 0.00 0.00 72 1010.1
20260906062523 61 71 0.0 1.7 0.00 0.00 0.00 72 1010.1
20260906062018 62 41 0.0 1.7 0.00 0.00 0.00 71 1010.0
20260906061518 62 60 0.0 1.7 0.00 0.00 0.00 71 1010.1
20260906061015 62 47 0.0 2.6 0.00 0.00 0.00 69 1010.1
20260906060519 63 36 1.7 2.6 0.00 0.00 0.00 68 1010.1
20260906060014 63 26 0.0 1.7 0.00 0.00 0.00 67 1010.2
20260906055514 63 30 0.0 2.6 0.00 0.00 0.00 67 1010.3
20260906055013 63 41 1.7 5.2 0.00 0.00 0.00 68 1010.1
20260906054512 63 240 0.0 5.2 0.00 0.00 0.00 68 1010.5
20260906054016 63 35 1.7 3.5 0.00 0.00 0.00 68 1010.1
20260906053612 64 348 0.0 3.5 0.00 0.00 0.00 65 1010.4
20260906053012 64 294 2.6 3.5 0.00 0.00 0.00 64 1010.3
20260906052512 65 57 0.9 3.5 0.00 0.00 0.00 62 1010.0
20260906052012 64 227 1.7 4.3 0.00 0.00 0.00 58 1010.5
20260906051512 64 21 3.5 4.3 0.00 0.00 0.00 59 1009.8
20260906051012 64 76 0.0 1.7 0.00 0.00 0.00 59 1010.3
20260906050511 64 105 0.0 1.7 0.00 0.00 0.00 58 1010.3
20260906050011 64 105 0.0 1.7 0.00 0.00 0.00 59 1010.2
20260906045513 64 105 0.0 1.7 0.00 0.00 0.00 59 1010.1
20260906045010 64 91 0.9 1.7 0.00 0.00 0.00 58 1009.9
20260906044510 64 85 0.0 3.5 0.00 0.00 0.00 57 1010.0
20260906044009 64 54 1.7 3.5 0.00 0.00 0.00 59 1009.7
20260906043510 64 59 0.9 1.7 0.00 0.00 0.00 59 1009.8
20260906043009 64 87 0.0 1.7 0.00 0.00 0.00 57 1009.9
20260906042510 65 63 0.0 1.7 0.00 0.00 0.00 57 1010.0
20260906042009 65 14 0.0 1.7 0.00 0.00 0.00 57 1009.9
20260906041509 65 13 0.0 1.7 0.00 0.00 0.00 57 1010.0
20260906041008 65 13 0.0 1.7 0.00 0.00 0.00 56 1009.9
20260906040508 66 343 0.0 1.7 0.00 0.00 0.00 55 1009.8
20260906040017 66 342 0.0 1.7 0.00 0.00 0.00 55 1009.7
20260906035508 66 355 0.0 3.5 0.00 0.00 0.00 55 1009.4
20260906035007 66 335 0.9 3.5 0.00 0.00 0.00 54 1009.4
20260906034509 66 9 0.9 2.6 0.00 0.00 0.00 55 1009.2
20260906034008 67 26 0.9 2.6 0.00 0.00 0.00 55 1009.4
20260906033507 67 49 0.0 1.7 0.00 0.00 0.00 55 1009.5
20260906033007 68 42 0.0 1.7 0.00 0.00 0.00 54 1009.5
20260906032507 68 40 0.0 2.6 0.00 0.00 0.00 54 1009.6
20260906032007 68 55 0.0 3.5 0.00 0.00 0.00 53 1009.5
20260906031508 69 28 2.6 3.5 0.00 0.00 0.00 52 1009.4
20260906031007 69 26 1.7 5.2 0.00 0.00 0.00 52 1009.4
20260906030507 69 28 1.7 5.2 0.00 0.00 0.00 51 1009.4
20260906030009 69 60 1.7 4.3 0.00 0.00 0.00 51 1009.3
20260906025506 69 48 2.6 4.3 0.00 0.00 0.00 52 1009.2
20260906025006 70 43 2.6 4.3 0.00 0.00 0.00 51 1009.1
20260906024519 70 26 2.6 4.3 0.00 0.00 0.00 52 1009.0
20260906024006 70 29 2.6 4.3 0.00 0.00 0.00 51 1009.0
20260906023506 70 30 1.7 4.3 0.00 0.00 0.00 51 1009.0
20260906023007 71 24 2.6 4.3 0.00 0.00 0.00 50 1009.0
20260906022505 71 32 2.6 4.3 0.00 0.00 0.00 50 1009.0
20260906022006 71 28 2.6 4.3 0.00 0.00 0.00 50 1009.0
20260906021508 72 34 2.6 4.3 0.00 0.00 0.00 49 1009.0
20260906021005 72 26 1.7 4.3 0.00 0.00 0.00 49 1008.9
20260906020505 73 51 2.6 4.3 0.00 0.00 0.00 49 1008.8
20260906020005 73 34 2.6 4.3 0.00 0.00 0.00 48 1008.7
20260906015504 73 33 1.7 4.3 0.00 0.00 0.00 48 1008.7
20260906015005 73 44 2.6 4.3 0.00 0.00 0.00 47 1008.6
20260906014508 74 47 2.6 3.5 0.00 0.00 0.00 47 1008.6
20260906014003 74 26 1.7 3.5 0.00 0.00 0.00 47 1008.6
20260906013503 75 19 1.7 3.5 0.00 0.00 0.00 46 1008.6
20260906013010 75 28 1.7 4.3 0.00 0.00 0.00 45 1008.5
20260906012502 76 47 2.6 4.3 0.00 0.00 0.00 44 1008.5
20260906012003 76 26 2.6 7.0 0.00 0.00 0.00 42 1008.6
20260906011504 77 23 2.6 7.8 0.00 0.00 0.00 41 1008.6
20260906011002 77 37 3.5 7.8 0.00 0.00 0.00 41 1008.6
20260906010502 77 54 4.3 7.8 0.00 0.00 0.00 40 1008.6
20260906010002 78 36 3.5 7.8 0.00 0.00 0.00 40 1008.5
20260906005501 78 80 3.5 7.8 0.00 0.00 0.00 40 1008.5
20260906005003 78 72 4.3 7.8 0.00 0.00 0.00 40 1008.5
20260906004504 79 26 2.6 7.8 0.00 0.00 0.00 38 1008.4
20260906004002 79 32 4.3 9.6 0.00 0.00 0.00 38 1008.4
20260906003600 79 28 3.5 9.6 0.00 0.00 0.00 39 1008.4
20260906003501 79 49 2.6 9.6 0.00 0.00 0.00 38 1008.4
20260906003001 79 27 3.5 10.4 0.00 0.00 0.00 38 1008.3
20260906002601 79 43 5.2 10.4 0.00 0.00 0.00 37 1008.3
20260906002100 80 42 4.3 9.6 0.00 0.00 0.00 37 1008.4
20260906001601 80 69 3.5 7.8 0.00 0.00 0.00 36 1008.5
20260906001059 80 360 2.6 9.6 0.00 0.00 0.00 37 1008.4
20260906000559 80 94 5.2 9.6 0.00 0.00 0.00 35 1008.4
20260906000100 80 46 3.5 9.6 0.00 0.00 0.00 35 1008.4
20260905235559 80 43 5.2 9.6 0.00 0.00 0.00 35 1008.4
20260905235059 81 68 4.3 11.3 0.00 0.00 0.00 35 1008.4
20260905234610 81 30 6.1 12.2 0.00 0.00 0.00 34 1008.3
20260905234503 81 47 6.1 12.2 0.00 0.00 0.00 34 1008.4
20260905234059 81 26 6.1 12.2 0.00 0.00 0.00 32 1008.3
20260905233559 81 82 4.3 11.3 0.00 0.00 0.00 36 1008.2
20260905233059 81 82 6.1 11.3 0.00 0.00 0.00 33 1008.2
20260905232557 81 39 4.3 11.3 0.00 0.00 0.00 34 1008.2
20260905232058 81 58 6.1 12.2 0.00 0.00 0.00 33 1008.1
20260905231558 82 46 6.1 12.2 0.00 0.00 0.00 32 1008.1
20260905231057 82 71 5.2 9.6 0.00 0.00 0.00 33 1008.1
20260905230557 82 19 2.6 9.6 0.00 0.00 0.00 33 1008.1
20260905230057 82 13 4.3 9.6 0.00 0.00 0.00 33 1008.1
20260905225557 82 51 4.3 11.3 0.00 0.00 0.00 34 1008.2
20260905225100 82 82 3.5 11.3 0.00 0.00 0.00 35 1008.2
20260905224610 82 21 5.2 10.4 0.00 0.00 0.00 32 1008.1
20260905224057 82 23 5.2 10.4 0.00 0.00 0.00 33 1008.1
20260905223556 82 21 6.1 10.4 0.00 0.00 0.00 34 1008.1
20260905223055 82 66 5.2 8.7 0.00 0.00 0.00 33 1008.1
20260905222555 82 67 3.5 11.3 0.00 0.00 0.00 34 1008.2